TimeCST,TemperatureF,Dew PointF,Humidity,Sea Level PressureIn,VisibilityMPH,Wind Direction,Wind SpeedMPH,Gust SpeedMPH,PrecipitationIn,Events,Conditions,WindDirDegrees,DateUTC
12:53 AM,-8.0,-22.0,50,30.62,10.0,NW,16.1,-,N/A,,Clear,310,2014-01-06 06:53:00
1:53 AM,-8.0,-22.0,50,30.62,10.0,NW,16.1,-,N/A,,Clear,310,2014-01-06 07:53:00
2:53 AM,-8.0,-20.9,53,30.61,10.0,WNW,11.5,-,N/A,,Clear,300,2014-01-06 08:53:00
3:53 AM,-8.0,-20.0,56,30.60,10.0,West,11.5,-,N/A,,Clear,280,2014-01-06 09:53:00
4:53 AM,-8.0,-18.9,59,30.61,10.0,WNW,10.4,-,N/A,,Clear,300,2014-01-06 10:53:00
5:53 AM,-8.0,-18.9,59,30.60,10.0,West,11.5,-,N/A,,Clear,270,2014-01-06 11:53:00
6:53 AM,-8.0,-18.9,59,30.60,10.0,West,9.2,-,N/A,,Clear,270,2014-01-06 12:53:00
7:53 AM,-8.0,-18.0,61,30.60,10.0,West,8.1,-,N/A,,Clear,280,2014-01-06 13:53:00
8:53 AM,-4.0,-16.1,56,30.61,10.0,WNW,13.8,-,N/A,,Scattered Clouds,300,2014-01-06 14:53:00
9:53 AM,-0.0,-16.1,47,30.61,10.0,NW,20.7,-,N/A,,Clear,310,2014-01-06 15:53:00
10:53 AM,3.0,-15.0,43,30.61,10.0,NW,25.3,33.4,N/A,,Clear,320,2014-01-06 16:53:00
11:53 AM,6.1,-14.1,39,30.58,10.0,NW,19.6,31.1,N/A,,Clear,310,2014-01-06 17:53:00
12:53 PM,8.1,-14.1,36,30.55,10.0,NW,20.7,-,N/A,,Clear,310,2014-01-06 18:53:00
1:53 PM,10.0,-13.0,35,30.51,10.0,NW,21.9,28.8,N/A,,Clear,310,2014-01-06 19:53:00
2:53 PM,10.9,-11.9,35,30.50,10.0,NW,18.4,28.8,N/A,,Clear,320,2014-01-06 20:53:00
3:53 PM,12.0,-11.9,34,30.49,10.0,NW,15.0,-,N/A,,Clear,320,2014-01-06 21:53:00
4:53 PM,10.9,-11.0,37,30.48,10.0,NW,8.1,-,N/A,,Clear,310,2014-01-06 22:53:00
5:53 PM,5.0,-11.9,46,30.46,10.0,Calm,Calm,-,N/A,,Clear,0,2014-01-06 23:53:00
6:53 PM,3.9,-11.9,48,30.45,10.0,Calm,Calm,-,N/A,,Clear,0,2014-01-07 00:53:00
7:53 PM,3.0,-9.9,55,30.45,10.0,SSW,4.6,-,N/A,,Clear,200,2014-01-07 01:53:00
8:53 PM,3.0,-9.0,57,30.41,10.0,South,6.9,-,N/A,,Clear,170,2014-01-07 02:53:00
9:53 PM,6.1,-7.1,55,30.38,10.0,South,5.8,-,N/A,,Clear,180,2014-01-07 03:53:00
10:53 PM,3.9,-8.0,58,30.34,10.0,South,6.9,-,N/A,,Clear,180,2014-01-07 04:53:00
11:53 PM,7.0,-6.0,55,30.30,10.0,South,8.1,-,N/A,,Clear,190,2014-01-07 05:53:00